TimeEST,TemperatureF,Dew PointF,Humidity,Sea Level PressureIn,VisibilityMPH,Wind Direction,Wind SpeedMPH,Gust SpeedMPH,PrecipitationIn,Events,Conditions,WindDirDegrees,DateUTC
12:53 AM,57.0,48.0,72,30.23,10.0,SE,4.6,-,N/A,,Partly Cloudy,140,2013-02-19 05:53:00
1:53 AM,57.9,48.0,70,30.22,10.0,SE,4.6,-,N/A,,Overcast,130,2013-02-19 06:53:00
2:53 AM,55.9,48.0,75,30.20,10.0,SE,4.6,-,N/A,,Mostly Cloudy,130,2013-02-19 07:53:00
3:53 AM,53.1,48.0,83,30.18,10.0,SE,5.8,-,N/A,,Clear,130,2013-02-19 08:53:00
4:53 AM,52.0,48.0,86,30.19,10.0,SE,3.5,-,N/A,,Clear,130,2013-02-19 09:53:00
5:53 AM,55.0,50.0,83,30.17,10.0,SE,5.8,-,N/A,,Clear,140,2013-02-19 10:53:00
6:53 AM,54.0,48.9,83,30.17,10.0,SE,3.5,-,N/A,,Clear,140,2013-02-19 11:53:00
7:53 AM,59.0,52.0,78,30.17,10.0,SE,8.1,-,N/A,,Clear,140,2013-02-19 12:53:00
8:53 AM,64.0,54.0,70,30.18,10.0,SSE,11.5,-,N/A,,Clear,150,2013-02-19 13:53:00
9:53 AM,69.1,54.0,58,30.19,10.0,SSE,12.7,-,N/A,,Clear,160,2013-02-19 14:53:00
10:53 AM,73.0,55.0,53,30.19,10.0,SSE,11.5,-,N/A,,Clear,160,2013-02-19 15:53:00
11:53 AM,75.0,55.0,50,30.19,10.0,South,13.8,20.7,N/A,,Clear,180,2013-02-19 16:53:00
1:53 PM,75.9,55.0,48,30.13,10.0,South,17.3,23.0,N/A,,Clear,190,2013-02-19 18:53:00
2:53 PM,77.0,57.0,50,30.12,10.0,South,13.8,21.9,N/A,,Clear,190,2013-02-19 19:53:00
3:53 PM,75.0,55.9,51,30.11,10.0,SSW,15.0,-,N/A,,Clear,200,2013-02-19 20:53:00
4:53 PM,73.9,55.9,53,30.11,10.0,SSW,13.8,-,N/A,,Clear,210,2013-02-19 21:53:00
5:53 PM,71.1,57.9,63,30.11,10.0,SSW,10.4,-,N/A,,Clear,200,2013-02-19 22:53:00
7:53 PM,66.2,60.8,83,30.12,10.0,SSW,5.8,-,N/A,,Clear,200,2013-02-20 00:53:00
8:53 PM,64.0,60.1,87,30.12,10.0,SSW,5.8,-,N/A,,Clear,200,2013-02-20 01:53:00
9:53 PM,63.0,60.1,90,30.12,10.0,South,5.8,-,N/A,,Clear,190,2013-02-20 02:53:00
10:53 PM,62.1,59.0,90,30.12,10.0,South,5.8,-,N/A,,Clear,180,2013-02-20 03:53:00
11:53 PM,62.1,60.1,93,30.11,10.0,SSW,5.8,-,N/A,,Clear,210,2013-02-20 04:53:00